Location: Hillsboro
(38.3483°N, 97.1938°W)
Time: 21:56:37
(UTC-06:00)

Daily predictions for brighter satellites

Satellite Brightness Start Highest point End
(mag) Time Altitude Azimuth Time Altitude Azimuth Time Altitude Azimuth
Cosmos 2219 3.5 18:29:38 10° SSW 18:35:13 74° WNW 18:40:53 10° NNE
IRS-1A Rocket 4.4 18:29:34 10° SSE 18:35:20 88° ENE 18:41:15 10° NNW
FALCON 9 R/B 3.8 18:29:40 10° WSW 18:35:22 70° SSE 18:57:36 10° E
Cosmos 1725 Rocket 4.0 18:30:33 10° N 18:36:53 81° E 18:43:10 10° S
GPS 2-04 Rocket1 4.5 18:34:23 10° W 18:37:39 26° SSW 18:40:45 10° SE
Ariane Rocket 4.1 18:32:54 10° S 18:37:51 51° W 18:42:50 10° NNW
Cosmos 2227 Rocket 2.5 18:34:18 10° S 18:39:40 46° ESE 18:45:02 10° NE
SPOT 3 Rocket 3.8 18:35:49 10° SE 18:40:47 49° ENE 18:45:48 10° N
CZ-2C R/B 4.1 18:36:27 10° N 18:40:53 66° WNW 18:45:15 10° SSW
Cosmos 2237 Rocket 2.6 18:36:45 10° N 18:42:02 40° ENE 18:47:16 10° SE
SL-16 R/B 3.6 18:39:26 10° N 18:43:14 18° NE 18:47:00 10° E
H-2A R/B 3.4 18:42:05 10° SE 18:45:38 33° ENE 18:49:10 10° N
Cosmos 2056 Rocket 3.7 18:41:50 10° N 18:47:08 53° ENE 18:52:25 10° SE
Cosmos 2123 Rocket 4.4 18:41:18 10° SSW 18:47:29 72° W 18:53:39 10° N
NOAA 12 4.1 18:45:06 10° SSE 18:50:22 76° ENE 18:55:41 10° N
Cosmos 2297 Rocket 2.4 18:48:40 10° S 18:54:08 53° ESE 18:59:37 10° NNE
FENGYUN 3A 3.8 18:49:02 10° SSE 18:54:25 84° WSW 18:59:52 10° NNW
Cosmos 1674 Rocket 4.3 18:51:57 10° NNE 18:55:48 30° ENE 18:59:36 10° SE
MTI 4.1 18:53:21 10° N 18:56:32 70° WNW 18:59:42 10° SSW
Cosmos 405 3.3 18:56:28 10° SSE 18:59:45 41° E 19:03:04 10° NNE
Okean 1-7 4.4 18:56:01 10° NNW 19:00:12 44° W 19:04:22 10° SSW
YAOGAN 1 4.0 18:56:38 10° S 19:00:45 43° W 19:04:54 10° NNW
CENTAUR R/B 3.2 18:58:59 10° S 19:04:02 31° ESE 19:09:35 10° NE
BREEZE-M DEB (TANK) 3.7 19:03:17 10° NNW 19:04:37 13° NNE 19:05:29 12° NE
Cosmos 1812 3.3 19:03:33 10° N 19:07:08 35° ENE 19:10:41 10° SE
Shenzhou-11 Module 1.9 19:05:07 10° WNW 19:08:08 90° SSW 19:10:03 20° ESE
ORS 1 (USA 231) 4.0 19:05:55 10° W 19:08:24 72° SSW 19:09:43 24° ESE
Resurs 01 Rocket 3.4 19:09:59 14° NE 19:09:59 14° NE 19:11:43 10° NNE
Cosmos 1733 Rocket 2.9 19:05:14 10° S 19:09:32 76° E 19:13:52 10° N
DELTA 2 R/B (2) 2.7 19:09:19 10° W 19:11:01 70° SSW 19:11:22 48° SE
Cosmos 2333 Rocket 2.6 19:07:15 10° NNW 19:12:53 66° WSW 19:18:26 10° S
NOSS 0 Rocket 4.1 19:10:06 10° NNW 19:16:19 78° WSW 19:22:29 10° SSE
Cosmos 1624 Rocket 4.1 19:11:38 10° NNW 19:16:52 78° WSW 19:22:02 10° SSE
Cosmos 2082 3.6 19:14:07 10° SSW 19:19:43 79° ESE 19:25:22 10° NNE
ERS-2 2.0 19:16:15 10° SSE 19:19:54 68° ENE 19:23:34 10° N
Tiangong 2 1.7 19:17:17 10° WNW 19:20:19 42° N 19:21:24 30° ENE
Cosmos 158 Rocket 4.2 19:16:36 10° S 19:21:12 42° ESE 19:25:48 10° NNE
Iridium 4 Rocket 3.7 19:17:37 10° NNE 19:22:19 40° E 19:26:38 10° SSE
FREGAT/IRIS 2.4 19:22:32 10° SSE 19:25:29 79° ENE 19:28:27 10° N
NOSS 3-2 (A) 4.1 19:21:27 10° SW 19:27:13 53° NW 19:33:35 10° NNE
Okean 3 3.4 19:24:30 10° N 19:28:37 57° E 19:32:43 10° SSE
ATLAS 3B R/B 4.1 19:23:07 10° WSW 19:29:43 36° NW 19:36:05 10° NNE
DNEPR-1 R/B 4.3 19:30:32 10° SW 19:34:37 49° NW 19:38:48 10° NNE
Thor Agena Rocket 3.5 19:31:37 10° NNE 19:36:41 60° ESE 19:41:39 10° S
Cosmos 1633 2.3 19:34:53 10° S 19:38:25 75° E 19:41:59 10° N
FengYun 1-2 T 4.4 19:34:41 10° S 19:40:11 74° WSW 19:45:42 10° NNW
Cosmos 1980 4.2 19:35:18 10° NNW 19:40:54 61° WSW 19:46:29 10° S
Cosmos 468 4.4 19:36:20 10° S 19:41:32 63° ESE 19:46:43 10° NNE
Lacrosse 5 2.0 19:37:20 10° NW 19:42:24 74° SW 19:46:02 19° SSE
USA 32 4.0 19:39:16 10° SSE 19:44:22 59° E 19:49:31 10° NNE
Sich 1 Rocket 3.6 19:40:25 10° S 19:44:51 57° E 19:49:16 10° NNE
Cosmos 1464 Rocket 3.8 19:43:13 10° N 19:49:22 79° E 19:55:30 10° S
SJ-6B 2.6 19:45:52 10° SSE 19:49:36 89° W 19:53:25 10° NNW
Envisat 2.9 19:44:50 10° SSE 19:49:50 64° ENE 19:54:52 10° N
Cosmos 1269 Rocket 4.3 19:45:11 10° S 19:50:06 41° ESE 19:50:14 41° E
CRYOSAT 2 4.3 19:47:04 10° NNE 19:51:55 62° E 19:56:43 10° S
Cosmos 1378 Rocket 3.4 19:51:54 10° N 19:56:19 87° E 20:00:44 10° S
Cosmos 1782 Rocket 3.9 19:52:49 10° S 19:56:14 47° SE 19:56:14 47° SE
HJ-1C 4.2 19:54:21 10° S 19:57:41 52° W 20:01:03 10° NNW
SeaSat 1 2.5 20:00:39 19° SSE 20:04:12 75° WSW 20:09:09 10° NNW
Okean 1 4.3 20:00:20 10° N 20:02:47 36° N 20:02:47 36° N
Cosmos 44 3.3 20:01:03 10° NNW 20:06:06 72° ENE 20:06:46 63° ESE
USA 215 3.8 20:03:16 16° NE 20:08:24 53° NW 20:14:42 10° WSW
CZ-3B R/B 4.4 19:52:36 10° SW 20:09:04 71° SE 20:10:15 54° ENE
ARGOS Delta rocket 4.0 20:06:00 10° N 20:10:56 72° WNW 20:15:33 10° SSW
Cosmos 2034 Rocket 4.1 20:16:19 10° N 20:22:42 78° W 20:29:02 10° S
Cosmos 2227 Rocket 4.3 20:19:21 10° WSW 20:23:54 25° WNW 20:28:30 10° N
Cosmos 2237 Rocket 4.2 20:21:15 10° NW 20:25:50 26° WSW 20:30:25 10° SSW
SL-8 R/B 4.1 20:21:58 10° WSW 20:26:31 57° NW 20:26:31 57° NW
SL-16 R/B 2.4 20:22:14 10° NNW 20:27:52 67° WSW 20:29:36 44° S
OAO 2 Rocket 4.3 20:25:22 10° WSW 20:28:42 36° SSW 20:28:42 36° SSW
CZ-4C R/B 4.2 20:25:02 10° N 20:29:16 22° NNE 20:29:16 22° NNE
Cosmos 2297 Rocket 4.4 20:34:10 10° WSW 20:38:28 22° NW 20:42:49 10° N
Spot 2 Rocket 4.5 20:42:05 39° NNW 20:42:05 39° NNW 20:45:16 10° NNW
USA 267 3.4 20:40:30 59° NNE 20:40:30 59° NNE 20:46:39 10° NW
Resurs 01 Rocket 3.4 20:47:32 27° NW 20:47:32 27° NW 20:49:42 10° NNW
CENTAUR R/B 3.4 20:48:36 10° WSW 20:54:20 45° NW 20:57:08 30° N
CZ-3C R/B 4.0 20:48:59 10° SSW 20:52:38 26° S 20:52:38 26° S
